Location: Barcelona
(41.3830°N, 2.1830°E)
Time: 23:16:58
(UTC+02:00)

ISS - Pass Details

Date: 25 May 2019
Orbit: 408 x 418 km, 51.6° (Epoch: 26 May)

Event Time Altitude Azimuth Distance (km) Brightness Sun altitude
Rises 00:13:36 0° 307° (NW) 2,355 1.0 -24.0°
Reaches altitude 10° 00:16:17 10° 330° (NNW) 1,494 0.1 -24.2°
Maximum altitude 00:18:28 16° 10° (N) 1,182 -0.8 -24.4°
Enters shadow 00:20:20 11° 46° (NE) 1,418 -0.9 -24.5°
